Terminal Aerodrome Forecast
Issued by NWS Dodge City, KS

Home | Current Version | Previous Version | Graphics & Text | Print | Product List | Glossary Off
Versions: 1 2 3 4 5 6 7 8 9 10 11 12 13 14 15 16 17 18 19 20 21 22 23 24 25 26 27

321
FTUS43 KDDC 191120
TAFDDC
TAF
KDDC 191120Z 1912/2012 25006KT P6SM SKC
     FM191400 22012KT P6SM SKC
     FM191800 21016G25KT P6SM FEW250
     FM192300 19009KT P6SM FEW250=

USA.gov is the U.S. government's official web portal to all federal, state and local government web resources and services.